Regional Weather Roundup
Issued by NWS

Home | Current Version | Previous Version | Text Only | Print | Product List | Glossary Off
Versions: 1 2 3 4 5 6 7 8 9 10 11 12 13 14 15 16 17 18 19 20 21 22 23 24 25 26 27 28 29 30 31 32 33 34 35 36 37 38 39 40 41 42 43 44 45 46 47 48 49 50

000
ASUS43 KIND 120109
RWRIN

WEATHER ROUNDUP FOR INDIANA
NATIONAL WEATHER SERVICE INDIANAPOLIS IN
800 PM EST MON DEC 11 2017

NOTE: "FAIR" INDICATES FEW OR NO CLOUDS BELOW 12,000 FEET WITH NO
SIGNIFICANT WEATHER AND/OR OBSTRUCTIONS TO VISIBILITY.

* - STATION DOES NOT REPORT WEATHER SUCH AS PRECIPITATION OR FOG.

+ - STATION NOT QUALITY CONTROLLED BY THE NATIONAL WEATHER SERVICE.
    USE DATA WITH CAUTION...ESPECIALLY DEWPOINT AND RELATIVE
    HUMIDITY OBSERVATIONS.

INZ001>003-010>013-019-020-120200-
NORTHWEST INDIANA

CITY           SKY/WX    TMP DP  RH WIND       PRES   REMARKS
GARY /AIRPORT/ LGT RAIN  36  32  87 NW9       29.76R WCI  29
KNOX *+        CLOUDY    32  28  86 N8        29.70R WCI  25
LA PORTE +     LGT SNOW  31  27  84 N10       29.73R WCI  23
MICHIGAN CITY+ LGT SNOW  32  28  86 CALM      29.75R
MONTICELLO +   CLEAR     33  26  76 S3        29.65S
RENSSELAER +   PTCLDY    32  27  80 N8        29.69R WCI  25
VALPARAISO     LGT SNOW  33  28  81 N6        29.74R WCI  28

$$

LMZ046-743>745-120200-
SOUTHERN LAKE MICHIGAN

STATION/POSITION TIME  TEMP    WIND        PRES    WAVE
                       AIR SEA DIR/SP/G            HT
                 (UTC) (F)     (DEG/KT/KT) (MB)    (FT)
BURNS HARBOR     0040   35      10/  6/  8 1007.8R
MICHIGAN CITY    0040   34     360/  8/  8   N/A

$$

INZ004-005-014>016-021>024-120200-
NORTH CENTRAL INDIANA

CITY           SKY/WX    TMP DP  RH WIND       PRES   REMARKS
ELKHART        CLOUDY    32  27  80 N6        29.72R WCI  26
GOSHEN         CLOUDY    29  24  82 NE6       29.69S WCI  23
LOGANSPORT +   PTCLDY    32  27  80 SE6       29.66S WCI  26
PERU/GRISSOM   PTCLDY    33  29  87 S7        29.64F WCI  27
ROCHESTER +    PTCLDY    32  28  86 NE3       29.67S
SOUTH BEND     CLOUDY    31  28  89 N10       29.73R WCI  22
WARSAW +       CLOUDY    30  27  86 E5        29.67F WCI  25

$$

INZ006>009-017-018-025>027-120200-
NORTHEAST INDIANA

CITY           SKY/WX    TMP DP  RH WIND       PRES   REMARKS
AUBURN +       CLOUDY    30  27  86 E3        29.68F
FORT WAYNE     CLOUDY    32  28  85 E7        29.67F WCI  26
HUNTINGTON +   CLOUDY    31  28  91 CALM      29.66F
KENDALLVILLE + PTCLDY    31  27  85 NE5       29.68S WCI  26

$$

INZ028-029-035-036-043>045-051>053-120200-
WEST CENTRAL INDIANA

CITY           SKY/WX    TMP DP  RH WIND       PRES   REMARKS
CRAWFORDSVL +  MOCLDY    39  26  59 W17G24    29.70R WCI  29
GREENCASTLE +  MOCLDY    43  27  52 W12G22    29.72S
LAFAYETTE      PTCLDY    39  27  62 W10       29.67R WCI  32
TERRE HAUTE    LGT RAIN  45  27  49 NW25G33   29.76R

$$

INZ030>032-037>040-046>048-054>057-064-065-120200-
CENTRAL INDIANA

CITY           SKY/WX    TMP DP  RH WIND       PRES   REMARKS
COLUMBUS       CLEAR     43  25  49 W16       29.71R
FRANKFORT +    CLEAR     39  28  62 W12       29.69R WCI  32
GREENWOOD *+   CLEAR     48  28  46 W15G25    29.70
INDIANAPOLIS   MOCLDY    43  25  49 W18G29    29.70R
-EAGLE CREEK   CLEAR     44  24  45 W12G23    29.68R
KOKOMO +       CLOUDY    31  28  89 SE6       29.66F WCI  25
MARION +       CLOUDY    35  28  78 SE7       29.66F WCI  29
MT COMFORT *+  CLOUDY    39  32  75 W13       29.68R WCI  32
SHELBYVILLE    PTCLDY    42  27  55 W14       29.69R
ZIONSVILLE +   CLEAR     39  26  60 W10       29.68R WCI  32

$$

INZ033-034-041-042-049-050-058-059-120200-
EAST CENTRAL INDIANA

CITY           SKY/WX    TMP DP  RH WIND       PRES   REMARKS
MUNCIE         CLOUDY    38  28  67 VRB5      29.66S WCI  34
RICHMOND +     CLEAR     32  28  86 SE10      29.65F WCI  24

$$

INZ060-061-067>069-081>083-085>088-120200-
SOUTHWEST INDIANA

CITY           SKY/WX    TMP DP  RH WIND       PRES   REMARKS
EVANSVILLE     CLEAR     50  28  42 W14G28    29.84R
HUNTINGBURG +  CLEAR     48  27  44 W13       29.81R
WASHINGTON +   MOCLDY    47  25  43 W16G24    29.79R

$$

INZ062-063-066-070>080-084-089>092-120200-
SOUTH CENTRAL AND SOUTHEAST INDIANA

CITY           SKY/WX    TMP DP  RH WIND       PRES   REMARKS
BEDFORD +      CLEAR     48  23  37 W13G22    29.75
BLOOMINGTON    MOCLDY    46  23  40 W17G28    29.73R
MADISON *+     CLEAR     45  30  57 SW8       29.73R
NORTH VERNON + CLEAR     41  28  60 SW12G18   29.71R
SEYMOUR +      CLEAR     50  27  40 W33G44    29.73R

$$





USA.gov is the U.S. government's official web portal to all federal, state and local government web resources and services.